Simultaneous Nadir Overpasses (SNOs) Predictions

Prediction of SNOs between GOES-14 and AQUA Satellite Orbit:

Table of predicted SNOs for the next 14.0 days since TLE Epoch: 10/17/2025
Index Date Time (GOES-14) GOES-14 Lat,Lon AQUA Lat,Lon Distance(km) Time Diff (sec)
1 10/18/2025 21:56:38 0.33,-108.43 1.00,-105.34 351.39 80
2 10/19/2025 10:18:17 -0.23,-108.50 0.07,-109.92 161.55 80
3 10/21/2025 09:54:44 -0.30,-108.50 -1.07,-104.81 419.69 80
4 10/21/2025 22:16:31 0.19,-108.44 -0.03,-109.41 110.60 80
5 10/23/2025 21:52:57 0.25,-108.44 1.12,-104.29 471.28 80
6 10/24/2025 10:14:35 -0.15,-108.51 -0.08,-108.87 41.06 80
7 10/26/2025 22:10:07 0.12,-108.44 0.16,-108.36 9.94 80
8 10/29/2025 10:08:09 -0.09,-108.50 -0.25,-107.81 79.70 80
9 10/29/2025 22:29:55 -0.03,-108.43 -0.85,-112.40 451.46 80
